{"data":{"norad_id":66857,"intl_designator":"2025-281K","name":"STARLINK-36083","alt_names":[],"object_type":"PAYLOAD","status":"ACTIVE","operator":null,"country":"US","launch_date":"2025-12-02","launch_site_code":"AFETR","launch_vehicle":null,"mission":null,"orbit_class":"UNKNOWN","rcs_meters":null,"size_class":null,"mass_kg":null,"dimensions":null,"purposes":["comms"],"wikipedia_slug":null,"has_3d_model":false,"image_url":null,"decayed_at":null,"tle_current":{"epoch":"2026-09-20T21:03:28.802880Z","epoch_age_seconds":51516,"freshness":"FRESH","line1":"1 66857U 25281K   26263.87741670  .00014348  00000+0  52979-3 0  9993","line2":"2 66857  43.0041 321.4460 0001535 275.9420  84.1257 15.27587521 46032","mean_motion":15.27587521,"eccentricity":0.0001535,"inclination_deg":43.0041,"raan_deg":321.446,"arg_perigee_deg":275.942,"mean_anomaly_deg":84.1257,"bstar":0.00052979,"rev_number":4603,"period_min":94.266284596076,"perigee_km":481.97338694354,"apogee_km":484.07976416123,"semimajor_km":6861.1635755524,"source":"CELESTRAK","updated_at":"2026-09-21T09:00:36.027428Z"}}}